Regional Weather Roundup
Issued by NWS Albany, NY

Home | Current Version | Previous Version | Text Only | Print | Product List | Glossary On
Versions: 1 2 3 4 5 6 7 8 9 10 11 12 13 14 15 16 17 18 19 20 21 22 23 24 25 26 27 28 29 30 31 32 33 34 35 36 37 38 39 40 41 42 43 44 45 46 47 48 49 50
000
ASUS41 KALY 280610
RWRALY

NEW YORK STATE HOURLY WEATHER ROUNDUP
NATIONAL WEATHER SERVICE ALBANY NY
200 AM EDT TUE APR 28 2015

NOTE: "FAIR" INDICATES FEW OR NO CLOUDS BELOW 12,000 FEET WITH NO
SIGNIFICANT WEATHER AND/OR NO OBSTRUCTIONS TO VISIBILITY.

NYZ032-033-038>043-046>054-057>066-NYZ062>081-280700-
EAST


CITY           SKY/WX    TMP DP  RH WIND       PRES   REMARKS
ALBANY         MOCLDY    49  40  71 N8        29.76R
GLENS FALLS    CLEAR     49  37  63 N15       29.76R
POUGHKEEPSIE   CLOUDY    52  39  61 N15G23    29.72R
NEWBURGH       PTCLDY    48  41  76 NW12      29.74S
MONTGOMERY     CLOUDY    50  39  66 NW10      29.73S
WHITE PLAINS   CLOUDY    49  40  71 NW16      29.70S
ISLIP          PTCLDY    49  40  71 NW15      29.67S
NEW YORK CITY  MOCLDY    51  38  60 NW13      29.72S
CENTRAL PARK   MOCLDY    52  36  54 VRB6      29.75S
$$

NYZ005>009-017-018-044>046-055-056-280700-
CENTRAL


CITY           SKY/WX    TMP DP  RH WIND       PRES   REMARKS
FULTON         CLOUDY    47  37  68 NW7       29.89S
SYRACUSE       CLOUDY    46  38  73 NW8       29.87F
ROME           CLOUDY    41  38  89 NW3       29.86S
ELMIRA         CLOUDY    47  39  74 SW5       29.89S
BINGHAMTON     CLOUDY    43  40  89 NW14G23   29.82S
MONTICELLO     CLOUDY    43  39  87 NW14      29.77S
$$

NYZ026>034-041>043-280700-
NORTH


CITY           SKY/WX    TMP DP  RH WIND       PRES   REMARKS
WATERTOWN      CLOUDY    43  41  93 CALM      29.87S
FORT DRUM      NOT AVBL
MASSENA        CLOUDY    51  39  63 N3        29.86S
SARANAC LAKE   CLOUDY    44  39  82 N5        29.80R
PLATTSBURGH    CLEAR     45  39  79 N12       29.82S
$$

NYZ001>004-010>016-019>021-280700-
WEST


CITY           SKY/WX    TMP DP  RH WIND       PRES   REMARKS
NIAGARA FALLS  PTCLDY    40  33  76 NW5       29.99R
BUFFALO        PTCLDY    38  35  89 SW3       29.99R
DUNKIRK        MOCLDY    43  37  79 SW3       30.01S
JAMESTOWN      PTCLDY    41  32  70 NW12      29.98S
WELLSVILLE     MOCLDY    38  34  85 NW7       29.94S WCI  33
ROCHESTER      CLOUDY    47  37  68 NW8       29.94S
PENN YAN       CLOUDY    46  37  71 NW14G23   29.90R
$$

             KEY
       WCI = WIND CHILL INDEX
       VSB = VISIBILITY
       HX  = HEAT INDEX
$$


USA.gov is the U.S. government's official web portal to all federal, state and local government web resources and services.